Time,TemperatureF,DewpointF,PressureIn,WindDirection,WindDirectionDegrees,WindSpeedMPH,WindSpeedGustMPH,Humidity,HourlyPrecipIn,Conditions,Clouds,dailyrainin,SoftwareType,DateUTC
2013-02-26 00:02:00,15.4,13.0,30.12,North,-999,2.0,3.0,91,0.00,,,0.00,weatherlink.com 1.10,2013-02-26 06:02:00,
2013-02-26 00:17:00,15.2,14.0,30.13,North,-999,1.0,3.0,93,0.00,,,0.00,weatherlink.com 1.10,2013-02-26 06:17:00,
2013-02-26 00:32:00,14.8,13.0,30.13,North,-999,2.0,2.0,91,0.00,,,0.00,weatherlink.com 1.10,2013-02-26 06:32:00,
2013-02-26 00:47:00,13.2,11.0,30.12,North,-999,3.0,4.0,91,0.00,,,0.00,weatherlink.com 1.10,2013-02-26 06:47:00,
2013-02-26 01:02:00,12.9,11.0,30.12,North,-999,3.0,4.0,92,0.00,,,0.00,weatherlink.com 1.10,2013-02-26 07:02:00,
2013-02-26 01:17:00,9.8,7.0,30.12,North,-999,3.0,4.0,89,0.00,,,0.00,weatherlink.com 1.10,2013-02-26 07:17:00,
2013-02-26 01:32:00,8.6,6.0,30.13,North,-999,2.0,5.0,90,0.00,,,0.00,weatherlink.com 1.10,2013-02-26 07:32:00,
2013-02-26 01:47:00,9.0,7.0,30.12,North,-999,2.0,4.0,91,0.00,,,0.00,weatherlink.com 1.10,2013-02-26 07:47:00,
2013-02-26 02:02:00,9.1,7.0,30.12,North,-999,3.0,4.0,90,0.00,,,0.00,weatherlink.com 1.10,2013-02-26 08:02:00,
2013-02-26 02:17:00,8.9,7.0,30.11,North,-999,3.0,3.0,90,0.00,,,0.00,weatherlink.com 1.10,2013-02-26 08:17:00,
2013-02-26 02:32:00,8.5,6.0,30.11,North,-999,3.0,3.0,90,0.00,,,0.00,weatherlink.com 1.10,2013-02-26 08:32:00,
2013-02-26 02:47:00,8.5,6.0,30.11,North,-999,3.0,4.0,90,0.00,,,0.00,weatherlink.com 1.10,2013-02-26 08:47:00,
2013-02-26 03:02:00,8.6,6.0,30.11,North,-999,2.0,4.0,90,0.00,,,0.00,weatherlink.com 1.10,2013-02-26 09:02:00,
2013-02-26 03:17:00,8.9,7.0,30.10,North,-999,3.0,4.0,90,0.00,,,0.00,weatherlink.com 1.10,2013-02-26 09:17:00,
2013-02-26 03:32:00,9.3,7.0,30.11,North,-999,4.0,4.0,91,0.00,,,0.00,weatherlink.com 1.10,2013-02-26 09:32:00,
2013-02-26 03:47:00,10.1,8.0,30.11,North,-999,0.0,4.0,91,0.00,,,0.00,weatherlink.com 1.10,2013-02-26 09:47:00,
2013-02-26 04:02:00,10.7,9.0,30.11,North,-999,0.0,3.0,91,0.00,,,0.00,weatherlink.com 1.10,2013-02-26 10:02:00,
2013-02-26 04:17:00,11.1,9.0,30.10,North,-999,3.0,4.0,91,0.00,,,0.00,weatherlink.com 1.10,2013-02-26 10:17:00,
2013-02-26 04:32:00,11.4,9.0,30.10,North,-999,4.0,5.0,91,0.00,,,0.00,weatherlink.com 1.10,2013-02-26 10:32:00,
2013-02-26 04:47:00,11.2,9.0,30.09,North,-999,4.0,5.0,90,0.00,,,0.00,weatherlink.com 1.10,2013-02-26 10:47:00,
2013-02-26 05:02:00,10.7,8.0,30.08,North,-999,4.0,6.0,90,0.00,,,0.00,weatherlink.com 1.10,2013-02-26 11:02:00,
2013-02-26 05:17:00,10.5,8.0,30.08,North,-999,3.0,6.0,90,0.00,,,0.00,weatherlink.com 1.10,2013-02-26 11:17:00,
2013-02-26 05:32:00,10.5,8.0,30.09,North,-999,2.0,5.0,90,0.00,,,0.00,weatherlink.com 1.10,2013-02-26 11:32:00,
2013-02-26 05:47:00,10.6,8.0,30.08,North,-999,3.0,5.0,90,0.00,,,0.00,weatherlink.com 1.10,2013-02-26 11:47:00,
2013-02-26 06:02:00,10.6,9.0,30.08,North,-999,4.0,5.0,91,0.00,,,0.00,weatherlink.com 1.10,2013-02-26 12:02:00,
2013-02-26 06:17:00,10.7,9.0,30.07,North,-999,4.0,6.0,91,0.00,,,0.00,weatherlink.com 1.10,2013-02-26 12:17:00,
2013-02-26 06:32:00,10.8,9.0,30.08,North,-999,4.0,5.0,91,0.00,,,0.00,weatherlink.com 1.10,2013-02-26 12:32:00,
2013-02-26 06:47:00,11.0,9.0,30.08,North,-999,2.0,5.0,91,0.00,,,0.00,weatherlink.com 1.10,2013-02-26 12:47:00,
2013-02-26 07:02:00,11.1,9.0,30.08,North,-999,2.0,3.0,91,0.00,,,0.00,weatherlink.com 1.10,2013-02-26 13:02:00,
2013-02-26 07:17:00,11.5,9.0,30.08,North,-999,4.0,4.0,91,0.00,,,0.00,weatherlink.com 1.10,2013-02-26 13:17:00,
2013-02-26 07:32:00,11.9,10.0,30.08,North,-999,4.0,6.0,91,0.00,,,0.00,weatherlink.com 1.10,2013-02-26 13:32:00,
2013-02-26 07:47:00,12.4,10.0,30.07,North,-999,4.0,5.0,91,0.00,,,0.00,weatherlink.com 1.10,2013-02-26 13:47:00,
2013-02-26 08:02:00,12.8,11.0,30.08,North,-999,4.0,5.0,91,0.00,,,0.00,weatherlink.com 1.10,2013-02-26 14:02:00,
2013-02-26 08:17:00,13.4,12.0,30.08,North,-999,6.0,6.0,92,0.00,,,0.00,weatherlink.com 1.10,2013-02-26 14:17:00,
2013-02-26 08:32:00,14.1,12.0,30.08,North,-999,4.0,5.0,92,0.00,,,0.00,weatherlink.com 1.10,2013-02-26 14:32:00,
2013-02-26 08:47:00,14.8,13.0,30.09,North,-999,4.0,5.0,92,0.00,,,0.00,weatherlink.com 1.10,2013-02-26 14:47:00,
2013-02-26 09:03:00,15.7,14.0,30.08,North,-999,5.0,5.0,92,0.00,,,0.00,weatherlink.com 1.10,2013-02-26 15:03:00,
2013-02-26 09:18:00,16.5,15.0,30.09,North,-999,3.0,5.0,93,0.00,,,0.00,weatherlink.com 1.10,2013-02-26 15:18:00,
2013-02-26 09:33:00,17.4,16.0,30.08,North,-999,4.0,5.0,93,0.00,,,0.00,weatherlink.com 1.10,2013-02-26 15:33:00,
2013-02-26 09:48:00,18.5,17.0,30.09,North,-999,3.0,4.0,93,0.00,,,0.00,weatherlink.com 1.10,2013-02-26 15:48:00,
2013-02-26 10:03:00,19.3,18.0,30.09,North,-999,2.0,4.0,93,0.00,,,0.00,weatherlink.com 1.10,2013-02-26 16:03:00,
2013-02-26 10:18:00,20.2,19.0,30.10,North,-999,1.0,3.0,94,0.00,,,0.00,weatherlink.com 1.10,2013-02-26 16:18:00,
2013-02-26 10:33:00,21.3,20.0,30.10,North,-999,2.0,4.0,94,0.00,,,0.00,weatherlink.com 1.10,2013-02-26 16:33:00,
2013-02-26 10:48:00,22.3,21.0,30.09,North,-999,2.0,4.0,94,0.00,,,0.00,weatherlink.com 1.10,2013-02-26 16:48:00,
2013-02-26 11:03:00,22.9,22.0,30.08,North,-999,2.0,3.0,94,0.00,,,0.00,weatherlink.com 1.10,2013-02-26 17:03:00,
2013-02-26 11:18:00,23.4,22.0,30.08,North,-999,3.0,4.0,94,0.00,,,0.00,weatherlink.com 1.10,2013-02-26 17:18:00,
2013-02-26 11:33:00,24.0,23.0,30.08,North,-999,4.0,5.0,94,0.00,,,0.00,weatherlink.com 1.10,2013-02-26 17:33:00,
2013-02-26 11:48:00,24.4,23.0,30.08,North,-999,4.0,6.0,94,0.00,,,0.00,weatherlink.com 1.10,2013-02-26 17:48:00,
2013-02-26 12:03:00,24.9,24.0,30.07,North,-999,7.0,10.0,94,0.00,,,0.00,weatherlink.com 1.10,2013-02-26 18:03:00,
2013-02-26 12:18:00,25.2,24.0,30.06,North,-999,6.0,12.0,94,0.00,,,0.00,weatherlink.com 1.10,2013-02-26 18:18:00,
2013-02-26 12:33:00,25.9,24.0,30.05,North,-999,9.0,10.0,94,0.00,,,0.00,weatherlink.com 1.10,2013-02-26 18:33:00,
2013-02-26 12:48:00,26.4,25.0,30.04,North,-999,8.0,11.0,94,0.00,,,0.00,weatherlink.com 1.10,2013-02-26 18:48:00,
2013-02-26 13:03:00,26.8,25.0,30.03,North,-999,9.0,11.0,93,0.00,,,0.00,weatherlink.com 1.10,2013-02-26 19:03:00,
2013-02-26 13:18:00,27.1,25.0,30.03,North,-999,8.0,13.0,92,0.00,,,0.00,weatherlink.com 1.10,2013-02-26 19:18:00,
2013-02-26 13:33:00,27.5,25.0,30.03,North,-999,9.0,13.0,91,0.00,,,0.00,weatherlink.com 1.10,2013-02-26 19:33:00,
2013-02-26 13:48:00,27.8,25.0,30.03,North,-999,8.0,13.0,90,0.00,,,0.00,weatherlink.com 1.10,2013-02-26 19:48:00,
2013-02-26 14:03:00,28.5,25.0,30.02,North,-999,9.0,12.0,86,0.00,,,0.00,weatherlink.com 1.10,2013-02-26 20:03:00,
2013-02-26 14:18:00,29.3,24.0,30.02,North,-999,11.0,13.0,82,0.00,,,0.00,weatherlink.com 1.10,2013-02-26 20:18:00,
2013-02-26 14:33:00,29.7,25.0,30.01,North,-999,6.0,13.0,81,0.00,,,0.00,weatherlink.com 1.10,2013-02-26 20:33:00,
2013-02-26 14:49:00,30.0,25.0,30.01,North,-999,13.0,15.0,80,0.00,,,0.00,weatherlink.com 1.10,2013-02-26 20:49:00,
2013-02-26 15:04:00,30.6,25.0,30.00,North,-999,4.0,16.0,79,0.00,,,0.00,weatherlink.com 1.10,2013-02-26 21:04:00,
2013-02-26 15:19:00,31.1,25.0,30.00,North,-999,12.0,17.0,78,0.00,,,0.00,weatherlink.com 1.10,2013-02-26 21:19:00,
2013-02-26 15:49:00,31.9,25.0,29.99,North,-999,12.0,18.0,76,0.00,,,0.00,weatherlink.com 1.10,2013-02-26 21:49:00,
2013-02-26 16:04:00,31.6,25.0,29.99,North,-999,17.0,21.0,75,0.00,,,0.00,weatherlink.com 1.10,2013-02-26 22:04:00,
2013-02-26 16:19:00,31.3,24.0,29.99,North,-999,15.0,20.0,75,0.00,,,0.00,weatherlink.com 1.10,2013-02-26 22:19:00,
2013-02-26 16:34:00,31.0,25.0,29.99,North,-999,10.0,17.0,77,0.00,,,0.00,weatherlink.com 1.10,2013-02-26 22:34:00,
2013-02-26 16:49:00,30.9,25.0,29.99,North,-999,9.0,13.0,77,0.00,,,0.00,weatherlink.com 1.10,2013-02-26 22:49:00,
2013-02-26 17:04:00,30.4,24.0,29.99,North,-999,9.0,11.0,77,0.00,,,0.00,weatherlink.com 1.10,2013-02-26 23:04:00,
2013-02-26 17:19:00,29.9,24.0,29.99,North,-999,2.0,8.0,78,0.00,,,0.00,weatherlink.com 1.10,2013-02-26 23:19:00,
2013-02-26 17:34:00,29.7,24.0,29.99,North,-999,2.0,5.0,78,0.00,,,0.00,weatherlink.com 1.10,2013-02-26 23:34:00,
2013-02-26 17:49:00,29.4,23.0,29.99,North,-999,1.0,4.0,78,0.00,,,0.00,weatherlink.com 1.10,2013-02-26 23:49:00,
2013-02-26 18:04:00,28.9,23.0,29.99,North,-999,3.0,4.0,78,0.00,,,0.00,weatherlink.com 1.10,2013-02-27 00:04:00,
2013-02-26 18:19:00,28.6,23.0,29.98,North,-999,3.0,5.0,79,0.00,,,0.00,weatherlink.com 1.10,2013-02-27 00:19:00,
2013-02-26 18:34:00,28.5,23.0,29.99,North,-999,2.0,6.0,79,0.00,,,0.00,weatherlink.com 1.10,2013-02-27 00:34:00,
2013-02-26 18:49:00,28.1,22.0,30.00,North,-999,3.0,3.0,79,0.00,,,0.00,weatherlink.com 1.10,2013-02-27 00:49:00,
2013-02-26 19:04:00,28.4,23.0,30.00,North,-999,5.0,8.0,79,0.00,,,0.00,weatherlink.com 1.10,2013-02-27 01:04:00,
2013-02-26 19:19:00,28.3,23.0,30.00,North,-999,7.0,8.0,79,0.00,,,0.00,weatherlink.com 1.10,2013-02-27 01:19:00,
2013-02-26 19:34:00,28.2,22.0,30.00,North,-999,4.0,7.0,79,0.00,,,0.00,weatherlink.com 1.10,2013-02-27 01:34:00,
2013-02-26 19:49:00,28.7,23.0,30.00,North,-999,7.0,9.0,78,0.00,,,0.00,weatherlink.com 1.10,2013-02-27 01:49:00,
2013-02-26 20:04:00,30.4,24.0,30.00,North,-999,12.0,17.0,76,0.00,,,0.00,weatherlink.com 1.10,2013-02-27 02:04:00,
2013-02-26 20:19:00,31.1,24.0,29.99,North,-999,14.0,18.0,74,0.00,,,0.00,weatherlink.com 1.10,2013-02-27 02:19:00,
2013-02-26 20:34:00,31.2,23.0,30.00,North,-999,15.0,22.0,73,0.00,,,0.00,weatherlink.com 1.10,2013-02-27 02:34:00,
2013-02-26 20:49:00,30.8,23.0,30.00,North,-999,15.0,19.0,74,0.00,,,0.00,weatherlink.com 1.10,2013-02-27 02:49:00,
2013-02-26 21:05:00,30.6,23.0,30.00,North,-999,16.0,19.0,73,0.00,,,0.00,weatherlink.com 1.10,2013-02-27 03:05:00,
2013-02-26 21:20:00,30.2,23.0,30.01,North,-999,14.0,18.0,74,0.00,,,0.00,weatherlink.com 1.10,2013-02-27 03:20:00,
2013-02-26 21:35:00,29.9,23.0,30.00,North,-999,14.0,20.0,74,0.00,,,0.00,weatherlink.com 1.10,2013-02-27 03:35:00,
2013-02-26 21:50:00,29.6,22.0,30.00,North,-999,13.0,18.0,74,0.00,,,0.00,weatherlink.com 1.10,2013-02-27 03:50:00,
2013-02-26 22:05:00,29.6,22.0,29.99,North,-999,18.0,21.0,74,0.00,,,0.00,weatherlink.com 1.10,2013-02-27 04:05:00,
2013-02-26 22:20:00,29.6,22.0,29.99,North,-999,14.0,19.0,74,0.00,,,0.00,weatherlink.com 1.10,2013-02-27 04:20:00,
2013-02-26 22:35:00,29.4,22.0,29.98,North,-999,14.0,21.0,74,0.00,,,0.00,weatherlink.com 1.10,2013-02-27 04:35:00,
2013-02-26 22:50:00,29.4,21.0,29.98,North,-999,13.0,23.0,72,0.00,,,0.00,weatherlink.com 1.10,2013-02-27 04:50:00,
2013-02-26 23:05:00,29.3,21.0,29.98,North,-999,16.0,20.0,72,0.00,,,0.00,weatherlink.com 1.10,2013-02-27 05:05:00,
2013-02-26 23:20:00,29.1,21.0,29.98,North,-999,15.0,22.0,72,0.00,,,0.00,weatherlink.com 1.10,2013-02-27 05:20:00,
2013-02-26 23:35:00,28.9,21.0,29.98,North,-999,16.0,21.0,73,0.00,,,0.00,weatherlink.com 1.10,2013-02-27 05:35:00,
2013-02-26 23:50:00,28.1,21.0,29.98,North,-999,14.0,18.0,74,0.00,,,0.00,weatherlink.com 1.10,2013-02-27 05:50:00,